User: anonymous   Login
Location: Huesca
(42.1318°N, 0.4078°W)
Time: 07:46:15
(UTC+02:00)
Language:

AO-7 - Orbit

View from above orbital plane
View from above orbital plane
View from above satellite
View from above satellite

Ground track
Ground track

The orbit data is extracted from the following two-line orbital elements,

1 07530U 74089B   24108.59153558 -.00000010  00000-0  22769-3 0  9990
2 07530 101.9777 102.6752 0012072 198.5222 274.9143 12.53674220261442
Epoch (UTC): 17 April 2024 14:11:48
Eccentricity: 0.0012072
inclination: 101.9777°
perigee height: 1440 km
apogee height: 1458 km
right ascension of ascending node: 102.6752°
argument of perigee: 198.5222°
revolutions per day: 12.53674220
mean anomaly at epoch: 274.9143°
orbit number at epoch: 26144

The dashed part of the orbit path shows where the satellite is in the earth's shadow,  

DLR